Location: G�migny
(47.9646°N, 1.6950°E)
Time: 07:50:05
(UTC+00:00)

Cosmos 1937 Rocket - Pass Details

Date: 23 October 2019
Orbit: 747 x 780 km, 74.0° (Epoch: 11 November)

Event Time Altitude Azimuth Distance (km) Brightness Sun altitude
Rises 18:15:14 0° 341° (NNW) 3,206 7.0 -14.8°
Reaches altitude 10° 18:17:43 10° 349° (NNW) 2,277 6.1 -15.2°
Maximum altitude 18:22:37 42° 60° (ENE) 1,058 3.8 -16.0°
Enters shadow 18:25:13 24° 116° (ESE) 1,506 4.5 -16.5°
